Temp
87 90 92 82 77 83 75 75 84 78 80 86 84 80 69 71 71 66 86 79 80 92 93 90 83 84 84 84 84 84 84 84 83 84 84 84 84 84 84 84 84 85 84 85 85 84 84 83 83
91 87 86 84 78 73 72 81 78 81 83 86 85 81 71 70 72 77 76 79 83 89 95 95 81 83 84 83 83 83 84 84 84 84 84 84 84 83 83 84 84 84 84 85 84 85 85 84 84
84 82 81 82 80 72 72 80 80 82 84 84 79 84 76 66 72 79 84 85 84 88 90 89 82 83 83 83 83 83 84 83 83 84 84 84 84 84 84 83 84 84 84 84 84 84 84 84 83
81 86 86 79 75 78 80 82 83 81 83 84 84 76 81 85 77 77 81 80 81 89 97 86 83 82 82 82 82 82 83 83 83 84 84 84 84 84 84 84 85 85 85 85 84 84 84 84 84
91 85 80 78 77 81 84 84 84 81 81 81 83 75 75 84 82 80 82 81 82 91 96 92 83 82 83 83 83 83 84 84 84 84 84 85 85 85 85 84 84 84 85 85 84 84 84 84 84
82 86 79 74 75 80 83 85 83 81 81 80 80 75 73 88 83 81 89 82 83 88 96 92 83 83 83 84 83 83 84 84 84 84 84 84 84 84 84 84 85 85 85 84 84 84 84 84 84
80 84 77 78 75 77 80 86 82 82 81 79 85 74 79 84 81 80 88 82 87 90 86 92 93 87 83 83 84 84 84 84 84 84 84 84 84 84 84 84 84 84 85 84 84 84 84 84 84
84 86 77 78 75 74 83 84 86 84 79 87 87 73 75 83 83 82 81 83 86 87 90 88 94 97 92 92 84 84 84 84 84 84 84 84 84 84 84 84 84 84 84 84 84 84 83 83 84
87 83 77 76 76 78 85 82 86 90 84 85 85 85 87 88 83 82 85 91 89 89 88 87 94 95 92 93 89 85 84 84 84 85 84 85 96 93 91 85 82 80 81 82 82 83 83 83 84
86 83 77 83 85 83 84 84 84 83 82 82 83 88 90 88 79 76 87 83 88 91 91 87 91 95 94 94 91 91 92 94 94 94 91 95 94 94 90 85 79 78 77 78 77 79 82 84 96
86 80 84 84 88 89 83 84 88 84 80 84 80 83 80 81 82 84 88 91 93 94 91 88 89 90 94 93 94 95 95 95 94 89 91 94 94 96 93 78 76 75 77 73 74 75 77 85 93
80 84 86 86 89 88 84 86 84 85 86 91 88 88 84 84 85 90 91 93 94 93 90 89 91 90 93 95 93 94 95 94 95 95 90 91 94 95 85 82 83 75 73 73 74 81 87 87 85
84 84 87 89 89 90 88 84 83 83 89 92 90 88 86 87 84 91 93 95 95 92 88 86 93 88 90 88 93 93 94 95 98 95 96 95 94 89 88 84 82 85 81 82 76 83 85 87 89
87 85 86 88 89 89 85 83 85 84 92 89 87 86 87 89 91 92 92 93 93 91 91 91 93 90 91 90 88 91 93 95 95 98 97 92 94 90 88 84 84 84 83 83 86 84 87 89 90
87 79 83 84 87 84 89 78 81 87 90 86 86 87 88 87 92 91 93 93 93 94 93 93 93 95 90 89 89 91 93 97 97 96 94 92 92 93 87 89 83 85 84 84 85 85 82 85 86
85 83 74 77 84 83 85 72 81 87 87 86 87 86 87 90 91 93 94 95 95 95 92 92 95 97 94 93 92 94 95 96 97 96 98 94 92 90 88 86 84 87 86 81 81 88 83 84 87
86 75 74 76 84 84 84 76 82 88 89 87 87 88 85 88 91 93 95 95 97 95 93 88 89 94 95 91 92 93 92 95 96 97 99 93 93 92 87 90 87 89 88 87 85 88 86 86 91
77 78 77 74 80 83 81 79 83 86 88 87 88 89 88 88 91 95 96 97 97 96 94 93 93 91 92 92 90 94 94 95 96 97 99 93 95 92 88 93 89 87 90 87 88 87 90 92 92
84 82 77 80 84 81 80 80 81 85 88 87 88 89 90 91 94 96 96 97 97 96 94 93 93 92 92 92 91 92 92 94 95 97 95 92 94 92 91 94 89 91 90 87 85 88 86 89 90
85 81 79 81 84 83 78 79 83 85 86 88 88 89 91 93 95 95 96 97 98 96 95 93 92 91 91 94 93 94 94 95 95 96 95 93 93 92 91 91 91 90 87 86 86 86 89 90 91
88 83 81 78 81 82 80 75 78 84 88 89 91 92 93 93 95 95 95 97 97 96 95 93 91 91 90 92 92 90 92 91 92 93 95 95 92 92 91 90 91 88 89 88 87 87 87 86 90
84 87 83 79 78 76 83 73 76 82 82 85 89 91 92 93 94 96 98 98 99 98 99 95 93 91 91 89 90 87 90 90 94 95 98 96 92 92 91 90 90 89 93 87 87 89 88 86 88
83 87 85 82 81 80 77 77 76 83 79 83 87 91 93 95 96 96 97 100 102 102 100 99 94 90 91 90 90 90 88 93 94 95 91 91 92 92 93 91 90 89 92 89 88 88 86 90 92
88 86 84 84 83 75 77 78 77 79 82 85 89 91 93 95 96 97 99 100 100 102 101 99 94 89 90 90 89 88 89 89 92 91 93 95 96 95 91 91 90 90 91 89 89 89 88 88 89
88 87 79 76 79 72 80 78 79 83 86 87 89 90 93 95 95 96 96 98 99 99 99 98 94 89 90 90 90 89 89 88 88 89 93 93 96 97 93 91 90 92 89 90 90 88 88 88 90
86 88 79 65 72 76 79 76 78 86 89 88 91 93 93 94 98 97 98 97 97 97 98 98 96 90 92 90 89 89 88 91 92 92 94 95 96 97 93 92 92 90 90 90 89 92 92 91 90
86 82 92 83 84 78 81 81 84 86 85 85 88 88 88 92 94 95 97 98 96 97 98 98 96 93 93 94 90 88 88 88 92 91 92 95 94 96 93 92 91 91 90 90 90 92 90 90 90
90 93 82 84 69 67 77 75 77 79 79 82 84 86 88 88 90 94 95 98 99 101 101 100 99 97 95 95 93 92 90 89 90 90 89 92 94 92 92 91 91 90 90 89 88 92 91 89 92
86 87 88 88 84 75 74 74 87 80 81 81 84 87 88 90 92 95 96 98 100 100 100 101 99 97 95 95 94 92 92 92 91 92 91 91 93 92 90 90 91 91 90 89 87 88 90 88 88
92 90 90 81 76 83 81 75 88 86 85 84 85 87 87 88 88 91 95 95 94 96 97 96 99 97 95 94 92 91 92 91 93 92 93 92 90 92 90 90 90 90 91 90 88 89 90 87 86
MSLP
1012.04 1011.65 1011.40 1010.95 1009.34 1007.16 1007.11 1007.78 1007.99 1008.58 1008.90 1009.75 1010.81 1011.50 1013.35 1014.33 1014.66 1015.83 1016.71 1017.87 1017.82 1016.59 1017.09 1017.57 1018.03 1018.09 1018.05 1018.09 1018.23 1018.27 1018.39 1018.47 1018.58 1018.46 1018.46 1018.56 1018.71 1018.71 1018.77 1018.64 1018.77 1018.79 1018.87 1018.88 1018.96 1019.12 1019.29 1019.52 1019.62
1011.56 1011.72 1011.19 1009.31 1007.38 1006.45 1007.39 1007.60 1008.05 1008.84 1009.73 1010.46 1011.24 1012.12 1013.59 1014.88 1015.85 1016.45 1017.35 1017.82 1017.75 1017.22 1016.76 1017.16 1018.24 1018.37 1018.32 1018.44 1018.51 1018.57 1018.61 1018.70 1018.81 1018.77 1018.76 1018.68 1018.80 1019.02 1019.02 1018.91 1018.94 1019.01 1019.02 1019.06 1019.23 1019.28 1019.45 1019.63 1019.71
1012.18 1012.07 1010.32 1008.37 1006.85 1006.86 1007.41 1007.99 1008.84 1009.76 1010.33 1010.55 1011.59 1012.37 1013.77 1015.60 1016.55 1016.77 1017.13 1017.35 1017.74 1017.57 1017.53 1017.95 1018.45 1018.53 1018.57 1018.69 1018.81 1018.89 1018.92 1019.00 1019.07 1018.99 1018.91 1018.94 1018.96 1019.06 1019.15 1019.37 1019.29 1019.26 1019.28 1019.30 1019.45 1019.57 1019.66 1019.75 1019.91
1011.97 1010.88 1009.84 1007.71 1007.33 1007.97 1007.84 1008.45 1009.27 1009.88 1010.61 1011.17 1011.58 1012.70 1014.30 1015.04 1016.54 1017.30 1017.66 1017.99 1017.98 1017.31 1016.80 1018.21 1018.64 1018.86 1018.84 1018.98 1018.97 1019.07 1019.28 1019.27 1019.30 1019.30 1019.19 1019.23 1019.26 1019.30 1019.35 1019.54 1019.61 1019.65 1019.66 1019.62 1019.71 1019.79 1019.81 1019.98 1020.01
1011.08 1010.26 1008.19 1007.40 1007.83 1008.21 1008.62 1009.26 1009.60 1009.86 1010.59 1011.30 1011.81 1013.01 1014.53 1015.89 1016.85 1017.43 1017.68 1018.08 1018.08 1017.28 1017.15 1018.06 1018.83 1019.05 1019.05 1019.22 1019.24 1019.37 1019.43 1019.43 1019.42 1019.41 1019.40 1019.50 1019.48 1019.55 1019.71 1019.81 1019.94 1019.95 1020.00 1019.98 1019.96 1020.08 1020.04 1020.11 1020.16
1010.06 1009.23 1007.02 1007.35 1008.26 1008.71 1009.11 1009.55 1009.97 1010.23 1011.12 1011.92 1012.30 1013.62 1015.10 1015.92 1016.90 1017.55 1017.59 1018.20 1018.24 1017.79 1017.01 1018.15 1019.04 1019.12 1019.24 1019.28 1019.46 1019.57 1019.61 1019.53 1019.59 1019.70 1019.62 1019.73 1019.72 1019.75 1019.91 1019.98 1020.05 1020.11 1020.17 1020.23 1020.30 1020.40 1020.35 1020.29 1020.29
1009.66 1008.05 1007.75 1007.81 1008.46 1008.67 1009.33 1009.90 1009.88 1010.31 1011.05 1011.76 1012.54 1013.35 1014.99 1016.15 1017.37 1017.77 1017.60 1018.32 1018.06 1018.07 1018.32 1018.04 1018.18 1019.05 1019.37 1019.48 1019.52 1019.59 1019.60 1019.59 1019.70 1019.82 1019.75 1019.81 1019.85 1019.91 1019.99 1020.06 1020.12 1020.19 1020.29 1020.34 1020.42 1020.53 1020.57 1020.52 1020.48
1009.96 1008.46 1008.00 1008.22 1008.06 1008.97 1009.63 1010.10 1010.48 1010.58 1011.51 1012.30 1012.77 1013.40 1014.44 1015.96 1017.30 1017.78 1018.30 1018.31 1018.14 1018.24 1018.16 1018.56 1017.83 1017.85 1018.36 1018.97 1019.55 1019.62 1019.75 1019.74 1019.77 1019.84 1019.78 1019.88 1019.84 1019.96 1020.00 1020.08 1020.16 1020.42 1020.43 1020.42 1020.56 1020.56 1020.64 1020.74 1020.62
1009.93 1007.93 1007.69 1008.35 1008.21 1009.05 1009.81 1010.01 1010.84 1011.12 1011.56 1011.80 1012.25 1012.80 1014.49 1016.12 1017.42 1017.76 1018.04 1017.39 1017.80 1018.27 1018.64 1018.71 1017.77 1018.02 1018.63 1018.58 1019.29 1019.67 1019.84 1019.87 1019.81 1019.70 1019.79 1019.67 1018.82 1019.14 1019.35 1019.90 1020.25 1020.65 1020.82 1020.78 1020.85 1020.70 1020.70 1020.71 1020.63
1008.90 1007.77 1008.32 1008.64 1008.55 1008.73 1009.60 1009.86 1010.58 1010.95 1011.32 1011.95 1012.57 1013.70 1014.87 1016.16 1017.37 1017.78 1017.15 1017.23 1017.26 1017.23 1017.86 1018.60 1018.14 1017.96 1018.33 1018.64 1019.11 1019.07 1019.15 1018.87 1018.88 1018.95 1019.21 1018.92 1019.01 1019.17 1019.53 1019.92 1020.39 1020.85 1021.02 1021.14 1021.03 1020.90 1020.84 1020.44 1019.53
1008.38 1008.06 1008.47 1008.52 1008.37 1008.75 1009.80 1010.00 1010.34 1010.59 1010.86 1011.82 1012.78 1013.95 1015.28 1016.06 1016.99 1017.10 1016.87 1016.53 1016.38 1016.56 1017.63 1018.41 1018.64 1018.68 1018.46 1018.46 1018.68 1018.60 1018.77 1018.80 1018.91 1019.26 1019.23 1018.99 1018.92 1018.69 1018.82 1019.66 1020.30 1020.36 1020.86 1021.03 1021.15 1021.19 1020.95 1020.32 1019.60
1008.21 1008.46 1008.35 1008.51 1008.67 1008.85 1009.42 1010.14 1010.38 1010.63 1010.77 1011.84 1013.28 1014.17 1015.35 1015.94 1016.28 1015.77 1015.81 1015.73 1015.99 1016.63 1017.63 1018.33 1018.24 1018.65 1018.37 1018.47 1018.78 1018.66 1018.56 1018.70 1018.53 1018.65 1019.10 1018.91 1018.38 1018.40 1019.18 1019.50 1019.63 1020.20 1020.59 1020.74 1021.03 1020.81 1020.03 1020.08 1020.24
1007.94 1008.42 1008.52 1008.54 1008.65 1008.85 1009.52 1009.95 1010.52 1010.97 1011.27 1012.02 1013.44 1014.36 1014.84 1015.17 1015.98 1015.57 1015.50 1015.62 1016.09 1016.79 1017.78 1018.30 1018.01 1018.77 1018.68 1019.07 1018.74 1018.69 1018.63 1018.45 1018.26 1018.47 1018.38 1018.50 1018.25 1018.56 1018.71 1019.10 1019.21 1019.32 1020.04 1020.07 1020.30 1020.07 1019.90 1019.92 1019.96
1008.17 1008.56 1008.58 1008.52 1008.47 1008.94 1009.30 1010.18 1010.43 1011.18 1011.31 1012.36 1013.40 1014.24 1014.61 1014.69 1014.74 1014.83 1015.15 1015.36 1015.92 1016.63 1017.12 1017.53 1017.84 1018.20 1018.56 1018.68 1019.02 1018.81 1018.63 1018.43 1018.38 1018.01 1018.09 1018.53 1018.20 1018.32 1018.41 1018.74 1018.79 1018.94 1019.19 1019.42 1019.32 1019.32 1019.28 1019.18 1019.34
1008.11 1008.77 1008.89 1009.09 1008.82 1009.09 1009.28 1010.12 1010.08 1011.08 1011.49 1012.45 1013.53 1013.93 1014.28 1014.53 1014.58 1014.74 1014.98 1015.24 1015.72 1016.12 1016.79 1017.13 1017.51 1017.64 1018.39 1018.61 1018.78 1018.67 1018.39 1017.98 1017.94 1017.93 1018.09 1018.30 1018.29 1018.01 1018.57 1018.09 1018.59 1018.54 1018.75 1019.12 1019.09 1019.28 1019.74 1019.27 1019.60
1007.14 1008.26 1008.52 1009.51 1009.09 1009.53 1009.34 1009.65 1010.59 1011.25 1011.27 1012.03 1012.92 1013.88 1014.08 1014.05 1014.33 1014.53 1014.77 1014.99 1015.44 1015.79 1016.55 1017.15 1017.29 1017.21 1017.72 1017.87 1018.31 1018.18 1018.00 1017.92 1017.84 1017.72 1017.54 1017.90 1018.07 1018.17 1018.30 1018.43 1018.41 1018.37 1018.60 1019.04 1019.13 1018.69 1019.19 1019.28 1019.25
1005.91 1006.75 1007.93 1008.73 1008.89 1008.87 1008.81 1009.29 1010.53 1011.02 1010.89 1011.36 1012.22 1012.94 1014.00 1014.06 1014.05 1014.12 1014.37 1014.80 1014.84 1015.63 1016.28 1017.13 1017.50 1017.25 1017.29 1017.95 1018.11 1018.13 1018.12 1017.89 1017.77 1017.46 1017.32 1017.72 1017.81 1017.97 1018.25 1017.93 1018.19 1018.15 1018.35 1018.26 1018.65 1018.48 1018.92 1019.04 1018.53
1005.56 1005.80 1007.12 1007.82 1008.49 1008.45 1008.43 1009.06 1010.10 1010.61 1010.52 1010.84 1011.55 1012.14 1012.91 1013.31 1013.39 1013.60 1013.97 1014.29 1014.61 1015.24 1015.94 1016.51 1016.86 1017.30 1017.50 1017.64 1018.11 1017.83 1017.78 1017.66 1017.58 1017.25 1017.16 1017.63 1017.64 1017.98 1018.12 1017.63 1018.04 1018.29 1017.83 1018.20 1018.40 1018.39 1018.42 1018.22 1018.41
1005.54 1005.65 1006.16 1007.17 1007.86 1008.01 1008.30 1008.76 1009.50 1010.11 1010.22 1010.46 1010.93 1011.45 1011.96 1012.31 1012.70 1013.10 1013.65 1013.95 1014.30 1014.78 1015.40 1015.88 1016.41 1016.74 1017.32 1017.43 1017.42 1017.37 1017.25 1017.33 1017.25 1017.02 1017.26 1017.55 1017.47 1017.73 1017.85 1017.39 1017.96 1017.74 1017.93 1018.30 1018.64 1018.61 1018.81 1018.64 1018.82
1004.73 1005.03 1005.42 1006.80 1007.61 1007.75 1008.24 1008.32 1009.03 1009.55 1009.79 1010.11 1010.46 1010.85 1011.15 1011.52 1011.81 1012.57 1013.04 1013.43 1013.78 1014.27 1014.88 1015.53 1016.05 1016.51 1017.02 1017.01 1017.16 1017.04 1017.09 1017.05 1016.98 1016.83 1017.09 1017.35 1017.45 1017.62 1017.76 1017.66 1017.60 1017.77 1018.25 1018.47 1018.61 1018.69 1018.35 1018.39 1018.66
1003.44 1004.13 1004.85 1005.75 1007.15 1007.62 1007.73 1007.98 1008.52 1009.03 1009.37 1009.80 1010.14 1010.36 1010.43 1010.65 1010.92 1011.52 1012.25 1012.59 1013.16 1013.66 1014.25 1014.85 1015.54 1016.00 1016.50 1016.68 1017.03 1017.18 1017.23 1017.26 1017.05 1016.89 1016.76 1016.81 1017.31 1017.47 1017.78 1017.81 1017.63 1017.96 1018.06 1018.24 1018.51 1018.63 1018.49 1018.37 1018.46
1002.94 1004.30 1004.82 1005.65 1006.01 1005.66 1006.73 1005.79 1007.46 1008.08 1008.80 1009.28 1009.48 1009.78 1010.05 1010.37 1010.83 1010.71 1011.04 1011.70 1012.08 1012.64 1013.43 1014.33 1015.06 1015.63 1016.06 1016.45 1016.52 1016.64 1016.46 1016.33 1016.32 1016.46 1016.44 1016.69 1017.14 1017.22 1017.55 1017.70 1017.90 1018.02 1017.61 1018.30 1018.51 1018.54 1018.63 1018.63 1018.02
1003.95 1004.24 1004.40 1004.95 1004.98 1005.21 1005.83 1005.49 1006.55 1007.28 1007.80 1008.23 1008.64 1008.82 1009.21 1009.63 1010.07 1010.46 1010.93 1010.90 1011.18 1011.68 1012.46 1013.27 1014.39 1015.23 1015.50 1015.84 1016.03 1016.31 1016.40 1016.24 1016.45 1016.45 1016.93 1016.91 1016.97 1017.11 1017.11 1017.53 1017.80 1018.00 1017.73 1018.22 1018.48 1018.52 1018.70 1018.49 1017.89
1004.40 1004.12 1004.15 1004.28 1003.94 1003.23 1004.82 1005.06 1005.02 1006.17 1006.61 1007.10 1007.75 1008.18 1008.49 1008.97 1009.42 1009.90 1010.29 1010.56 1011.01 1011.27 1011.96 1012.74 1013.77 1014.76 1015.23 1015.61 1016.06 1016.12 1016.07 1016.32 1016.28 1016.55 1016.38 1016.35 1016.46 1016.79 1017.17 1017.27 1017.50 1017.76 1017.73 1018.18 1018.28 1018.38 1018.66 1018.57 1018.51
1003.96 1002.68 1001.64 1001.72 1001.78 1002.72 1004.40 1004.54 1004.94 1005.91 1006.47 1006.49 1006.73 1007.53 1008.06 1008.51 1009.08 1009.52 1010.00 1010.28 1010.67 1011.04 1011.72 1012.42 1013.29 1014.13 1014.68 1015.13 1015.54 1015.91 1016.16 1016.59 1016.67 1016.81 1016.29 1016.11 1016.03 1016.13 1016.66 1017.08 1017.35 1017.29 1017.71 1017.82 1017.96 1018.35 1018.38 1018.67 1018.39
1002.89 1002.15 1001.10 1001.12 1001.44 1002.04 1003.82 1003.74 1005.26 1006.22 1006.63 1007.12 1007.04 1007.32 1008.05 1008.39 1008.52 1008.97 1009.24 1009.94 1010.49 1011.01 1011.48 1012.08 1012.72 1013.58 1014.07 1014.61 1015.03 1015.62 1016.04 1016.15 1016.34 1016.42 1016.19 1016.08 1015.88 1015.90 1016.25 1016.57 1016.80 1017.11 1017.40 1017.67 1017.92 1018.04 1018.18 1018.17 1018.40
1002.32 1002.26 1001.79 1001.16 1001.85 1001.43 1002.50 1004.27 1005.58 1006.51 1007.00 1007.57 1007.43 1008.11 1008.43 1008.54 1008.67 1008.78 1009.27 1009.67 1010.37 1010.72 1011.15 1011.62 1012.25 1012.98 1013.50 1013.93 1014.62 1015.07 1015.46 1015.65 1015.55 1015.92 1016.16 1016.09 1016.17 1015.93 1016.20 1016.27 1016.64 1016.75 1017.00 1017.46 1017.60 1017.76 1018.05 1018.15 1018.32
1002.44 1002.06 1001.37 1001.08 1000.87 1001.10 1001.79 1003.52 1004.76 1006.44 1007.44 1007.80 1007.93 1008.27 1008.55 1009.07 1009.18 1009.08 1009.42 1009.48 1009.81 1010.21 1010.59 1011.12 1011.61 1012.10 1012.75 1013.36 1013.90 1014.34 1014.78 1015.19 1015.37 1015.69 1015.95 1015.82 1015.86 1016.26 1016.33 1016.36 1016.56 1016.70 1016.85 1017.13 1017.49 1017.39 1017.60 1017.89 1017.82
1002.24 1001.52 1001.23 1000.72 1000.98 1000.60 1001.08 1003.59 1005.35 1006.96 1007.83 1008.14 1008.37 1008.61 1008.84 1008.94 1008.96 1008.91 1008.99 1009.18 1009.24 1009.73 1010.16 1010.50 1011.06 1011.55 1012.07 1012.60 1013.10 1013.71 1014.15 1014.52 1014.91 1015.09 1015.46 1015.74 1015.86 1016.07 1016.24 1016.40 1016.42 1016.54 1016.75 1016.85 1016.97 1017.27 1017.28 1017.56 1017.71
1001.58 1000.73 1000.58 1000.28 1000.65 1001.31 1001.98 1004.31 1006.04 1007.03 1007.94 1008.42 1008.59 1008.84 1009.36 1009.37 1009.53 1009.40 1009.20 1009.38 1009.61 1009.66 1009.96 1010.31 1010.52 1011.09 1011.70 1012.36 1012.88 1013.31 1013.71 1014.09 1014.17 1014.57 1014.93 1015.26 1015.47 1015.67 1015.88 1015.98 1016.07 1016.20 1016.24 1016.38 1016.72 1016.75 1016.72 1017.10 1017.30
Wind_Speed
11 6 3 4 5 2 11 10 12 11 9 7 8 6 9 7 7 11 16 7 6 8 10 9 8 8 10 11 12 13 13 12 11 11 12 12 11 11 11 13 13 13 13 13 14 14 15 14 13
4 2 4 5 2 9 10 8 11 9 10 12 12 10 8 7 3 15 10 9 10 5 7 11 8 8 10 10 11 12 13 12 11 12 12 13 12 9 11 12 13 12 13 12 13 12 13 12 13
2 2 5 3 8 10 9 8 10 12 8 7 6 9 8 4 7 13 13 13 9 10 7 11 9 9 9 9 10 11 11 12 11 11 12 12 11 10 11 11 12 12 11 12 12 11 11 11 11
2 5 5 1 13 10 10 9 9 9 8 4 8 9 9 11 10 6 11 9 8 6 11 11 7 10 10 9 11 11 11 12 10 10 12 11 11 10 10 10 10 10 10 10 10 10 10 9 8
4 3 3 9 12 10 11 8 4 2 4 7 1 9 14 12 13 16 12 10 8 8 10 11 6 10 10 10 11 10 10 11 9 8 10 9 10 10 9 9 9 9 9 9 8 7 8 7 6
4 4 5 10 11 8 7 5 3 4 6 7 14 17 10 15 16 11 14 9 8 5 5 11 8 5 10 10 10 10 8 9 8 7 9 7 8 8 7 7 8 8 8 8 8 7 6 6 6
4 3 9 11 8 6 6 3 4 6 7 8 12 13 13 19 14 10 10 9 10 9 5 6 11 11 7 8 8 8 8 7 6 5 4 6 6 6 5 4 4 6 5 6 6 6 5 5 6
3 4 7 5 5 6 5 8 7 9 13 10 16 9 20 21 16 13 10 9 7 6 7 6 6 9 8 11 8 9 7 6 5 6 4 3 5 4 4 5 4 4 3 2 3 3 3 3 5
2 4 8 5 4 8 10 9 8 10 12 3 2 13 24 22 17 13 14 12 9 10 9 5 6 7 6 6 8 8 6 4 4 6 4 8 1 3 6 10 11 10 8 10 8 2 0 1 3
4 3 5 3 2 8 8 6 12 9 7 11 18 22 23 22 15 14 16 12 12 11 10 6 3 6 8 5 7 5 6 6 3 2 2 3 1 2 4 1 10 6 3 5 8 12 6 9 2
3 5 5 5 5 11 9 8 8 8 9 15 21 24 18 19 16 17 16 15 13 10 8 6 7 5 8 5 5 4 4 4 5 4 4 1 3 1 3 1 4 5 5 5 4 7 4 5 3
6 5 4 5 9 12 8 8 8 6 9 16 20 23 22 20 18 16 14 13 10 10 8 8 9 7 6 5 5 4 3 3 4 3 4 3 4 0 1 0 5 5 4 6 8 7 9 6 1
6 7 6 8 10 11 10 10 8 7 8 18 20 20 20 18 18 15 13 10 10 10 9 10 9 7 5 5 4 3 3 5 3 4 3 4 4 3 4 0 2 6 6 7 5 8 6 6 7
4 3 6 6 11 11 9 11 7 7 16 20 21 19 16 15 16 13 12 11 10 9 11 11 10 8 8 6 5 3 4 3 3 3 2 4 5 3 5 2 2 3 5 5 5 7 7 7 7
3 8 5 4 7 7 10 9 7 13 18 20 20 17 17 15 14 12 11 11 10 10 10 10 9 10 9 7 6 5 4 3 3 4 4 5 6 2 5 2 3 1 5 7 5 6 5 4 4
7 9 5 1 6 5 9 10 11 13 18 21 20 18 14 15 16 13 12 11 12 10 11 9 9 9 11 8 6 4 4 3 3 3 3 2 4 4 3 2 3 4 3 4 5 5 6 5 5
4 8 6 7 4 6 8 12 13 13 16 19 18 18 16 14 14 14 13 12 11 11 11 10 10 9 8 7 5 5 4 4 4 4 2 3 2 2 4 3 2 4 3 4 6 5 6 6 5
8 3 3 2 5 5 7 10 14 13 14 17 17 15 16 16 16 15 14 13 11 11 12 13 12 11 8 5 6 5 5 4 5 4 2 1 1 1 3 4 4 2 4 5 6 6 5 4 4
8 7 3 6 7 4 5 9 14 15 13 15 15 15 15 16 17 14 14 13 12 12 12 12 12 10 9 8 7 6 6 5 5 4 2 4 2 2 1 3 4 4 3 5 6 6 6 5 4
10 6 4 6 9 2 4 8 11 16 14 14 14 15 15 16 16 14 14 13 14 15 13 13 13 12 10 7 6 4 3 4 4 4 2 4 4 2 3 1 3 3 5 5 5 4 5 4 4
8 5 6 1 9 4 6 8 11 14 13 13 15 14 15 15 15 16 16 16 14 13 14 13 13 12 12 10 6 5 5 5 5 5 6 4 4 4 3 3 3 4 2 4 5 6 3 3 4
7 3 2 9 10 1 6 4 12 15 17 16 16 17 16 14 12 11 15 16 16 15 15 14 13 13 12 12 9 8 5 5 4 4 1 2 4 5 5 4 4 2 1 3 4 4 2 5 5
7 2 8 8 6 5 7 6 9 13 15 20 18 18 18 16 16 16 15 13 14 12 13 13 13 12 12 13 11 9 8 5 5 4 0 3 4 5 5 5 5 4 5 4 1 3 5 4 3
4 9 9 6 5 4 5 8 11 8 13 17 19 19 17 16 14 12 12 12 11 10 10 10 11 11 11 12 12 11 9 7 6 5 4 4 4 6 5 4 4 4 3 5 5 4 5 5 3
8 14 4 3 3 7 4 5 10 3 2 3 17 18 18 15 13 12 11 12 12 10 11 10 11 11 12 13 13 13 11 9 8 8 7 4 4 4 7 5 5 6 6 5 4 4 3 4 4
12 10 9 1 6 5 4 4 8 3 3 5 4 10 12 15 15 14 13 11 11 12 11 12 12 12 12 13 13 11 11 8 8 8 7 5 4 4 3 6 6 6 6 6 5 5 6 5 6
8 9 8 8 3 7 5 10 14 9 4 3 5 7 8 9 11 12 12 10 9 11 12 12 11 11 12 14 12 13 12 12 9 8 7 8 6 5 5 5 6 5 7 7 6 6 5 4 7
10 2 7 8 3 4 8 5 9 7 7 6 6 7 5 6 9 9 10 11 11 11 10 11 11 12 11 12 13 12 13 12 11 9 10 9 6 5 4 5 5 6 5 7 7 6 7 7 6
7 10 5 6 6 4 5 11 11 9 9 8 8 7 8 9 9 9 9 7 10 12 11 12 12 12 12 12 11 11 11 11 11 11 10 10 10 7 7 6 7 8 8 8 8 8 6 7 7
7 8 7 10 11 3 8 10 5 11 9 7 7 5 5 3 3 6 7 7 7 9 10 11 10 11 11 10 10 11 11 10 11 11 11 10 10 10 9 9 9 9 9 9 8 9 9 9 9
Wind_Direction
190 198 268 251 222 149 70 78 103 111 107 85 91 52 92 34 13 99 125 141 178 130 131 143 96 125 124 120 124 123 117 120 117 116 109 95 92 99 104 106 101 98 99 101 101 102 100 101 100
129 245 246 278 232 86 74 84 87 68 93 108 95 110 52 79 66 115 125 148 156 139 120 124 114 129 132 130 126 124 123 120 119 110 107 99 88 88 93 96 102 107 95 94 95 98 104 102 99
139 253 286 310 42 49 80 78 94 107 126 143 108 59 100 84 137 124 127 148 142 153 121 99 128 127 128 127 122 124 122 122 122 118 110 100 87 76 93 90 93 93 95 97 95 96 97 104 107
286 202 218 36 85 56 57 82 113 115 110 100 107 87 90 101 119 124 140 134 142 160 139 120 130 129 125 125 126 122 119 116 106 114 101 99 89 79 83 85 90 93 91 93 95 101 100 98 95
225 247 183 86 79 76 75 87 92 77 85 137 168 96 113 119 116 140 138 141 151 167 128 137 144 134 129 132 125 123 128 111 100 101 99 95 88 83 76 80 83 88 92 93 95 91 94 90 80
236 266 166 92 94 93 85 66 44 71 105 115 118 117 120 114 135 136 140 156 150 149 142 124 132 117 128 129 128 128 116 120 119 108 101 109 94 92 86 83 85 87 88 85 85 91 93 87 77
322 306 72 100 109 111 75 56 60 93 111 125 129 132 132 148 135 155 135 153 177 142 157 146 148 127 121 115 123 125 130 132 123 110 109 93 104 109 118 98 88 83 88 94 92 86 78 78 71
290 269 115 100 92 89 102 87 90 84 94 103 134 152 153 148 149 150 147 168 173 156 163 174 171 141 157 153 139 134 140 140 134 117 113 128 155 147 135 160 109 59 68 98 82 79 57 56 68
223 210 100 75 28 118 127 121 87 100 130 110 229 143 147 147 160 145 171 188 180 181 164 196 157 139 129 139 133 148 143 137 171 166 165 215 306 118 185 74 68 19 24 2 352 312 204 232 142
256 66 71 58 135 139 133 114 128 134 117 116 115 127 145 153 157 167 183 184 193 189 170 164 192 166 148 180 151 181 152 177 161 171 198 241 26 7 317 84 128 141 77 341 341 321 305 238 213
155 105 123 75 109 134 129 122 136 140 111 143 142 144 148 150 171 184 190 197 192 184 160 172 191 223 180 155 187 174 180 180 167 206 260 53 301 306 7 72 133 140 199 160 249 267 263 287 271
125 132 152 126 137 135 131 131 130 80 94 138 148 152 160 172 181 192 195 193 185 174 180 198 189 209 211 162 206 177 199 195 213 164 236 241 260 35 336 106 167 160 163 167 203 231 233 206 343
107 140 135 147 145 132 135 121 130 94 156 139 149 157 167 175 183 199 197 187 186 176 176 205 218 188 208 200 204 216 232 214 191 213 200 286 282 31 308 322 144 162 200 187 206 210 207 213 192
85 103 105 150 138 135 134 126 152 120 145 147 160 166 176 185 181 183 194 193 184 181 190 181 210 188 205 212 212 231 231 226 247 267 270 256 280 6 305 12 20 149 156 162 197 178 196 196 168
97 158 133 65 131 123 136 153 96 143 153 160 165 172 180 193 193 190 196 199 194 191 195 190 207 193 194 195 200 214 237 201 280 287 263 264 278 288 309 352 33 24 119 166 180 169 182 191 164
144 153 152 135 152 141 231 135 138 160 163 170 173 178 193 190 193 197 198 206 187 200 186 200 204 200 181 188 187 225 224 262 285 285 289 273 261 283 302 356 3 57 135 154 159 179 154 150 145
95 139 90 148 222 163 225 129 152 171 171 172 180 179 187 210 210 194 194 200 184 190 183 198 210 216 186 178 214 222 239 232 267 292 299 101 216 265 310 91 65 71 80 129 148 163 157 165 153
347 351 108 144 154 205 160 121 156 177 176 178 181 185 186 202 206 200 200 192 196 179 192 201 198 206 207 198 219 230 234 235 246 265 295 261 129 166 299 68 81 124 117 128 153 160 166 159 133
308 304 265 123 138 162 168 147 166 176 186 176 183 187 188 196 199 201 203 202 200 197 195 201 207 208 207 207 217 216 232 224 246 256 248 251 238 125 90 82 120 109 70 89 153 151 165 156 159
313 281 178 107 143 228 155 183 175 180 187 187 189 186 192 190 187 195 201 212 208 202 208 206 211 198 204 207 221 242 259 235 273 278 284 246 245 175 150 52 100 62 115 128 140 192 157 154 163
300 280 134 106 153 131 181 169 183 191 191 191 197 203 200 199 198 190 201 210 209 216 211 213 210 211 206 216 200 199 223 240 241 226 229 193 210 190 140 153 72 134 183 143 156 169 196 135 176
295 16 213 149 194 148 234 94 183 185 196 200 201 205 211 215 217 238 205 209 216 216 213 213 216 212 205 200 199 211 233 235 208 242 351 228 199 191 168 157 137 187 297 131 181 181 184 238 164
15 106 166 168 203 236 159 251 99 185 202 202 207 202 208 208 214 212 224 231 224 220 214 212 209 215 219 199 217 195 223 206 226 224 2 253 170 217 195 173 158 163 231 152 213 179 236 177 298
153 137 137 164 229 191 93 283 128 163 221 204 206 211 210 203 211 215 224 225 238 229 217 210 205 212 211 207 207 211 203 226 228 222 248 207 183 176 197 189 186 165 182 198 204 211 206 274 313
236 219 185 203 189 55 119 231 54 23 131 258 196 205 210 211 211 217 216 227 225 220 207 206 203 209 206 204 206 208 208 211 224 240 228 296 220 210 152 196 197 178 191 202 230 206 227 218 243
213 279 309 277 19 49 131 55 86 78 139 150 138 182 202 217 214 219 221 219 220 224 210 206 200 209 203 204 205 208 209 210 218 220 259 240 259 204 138 194 196 190 187 204 201 220 236 204 228
135 231 15 285 172 254 69 106 90 95 123 191 205 160 199 213 230 220 225 208 220 222 221 219 214 204 209 204 204 204 204 216 213 229 217 228 231 234 209 201 212 211 195 201 197 236 217 249 230
290 16 215 220 218 287 114 103 94 96 98 116 142 173 165 141 193 197 213 225 214 228 224 223 224 217 211 215 203 205 206 209 212 215 229 245 243 234 249 205 211 236 221 210 209 224 202 225 237
171 208 236 321 302 309 256 93 100 110 117 116 116 137 157 167 186 191 202 213 222 212 218 226 211 219 214 212 211 213 212 209 208 213 218 227 236 227 223 222 238 234 232 224 217 244 261 220 236
284 309 255 234 170 266 312 95 141 122 122 132 122 121 125 134 209 246 243 236 233 232 220 223 226 221 216 217 215 207 210 215 212 214 217 222 224 231 230 227 222 228 226 231 227 232 242 232 229